OBJECT AE, 57194

Orbit data source: Space-Track

You're viewing an Uncataloged Satellite

Recently launched and/or uncataloged satellites may have evolving metadata. Metadata may include but not limited to: Owner, Maufacturer, Bus, Motor, and Mission.

OBJECT AE, 57194 is a satellite in SSO that was launched on Tue, 27 Jun 2023 UTC via a SOYUZ-2-1B launch vehicle from the Vostochny Cosmodrome (VOSTO). Unknown objects in Earth's orbit typically refer to objects detected orbiting the Earth but have not yet been identified or cataloged. These objects could be anything from previously untracked satellites, spent rocket stages, debris from satellite collisions, or even natural meteoroids temporarily captured by Earth's gravity.

Loading next visibility...
Identifier
57194, 2023-091AE
Orbit
SSO
Country
Flag of TBDTBD
Related business
Manufacturer
Sputniks
Mission
Operational Commercial Communications
Bus & Motor
CUBESAT 3U?, Unknown motor
Mass
3 kg wet, 3 kg dry
Launch date (UTC)
2023-06-27 (3 years ago)
Launch vehicle
SOYUZ-2-1B
Launch site
Vostochny Cosmodrome (VOSTO)
Object type
Unknown
Shape & HBR
Box, 0.2 m
Radar Cross Section
0.035 m², Medium (>0.1 m² and < 1m²)

Expand to show TLE details & history
Last TLE update: 15 hours ago

TLE from 15 hours ago
0 OBJECT AE
1 57194U 23091AE  26206.60960396  .00009224  00000-0  35811-3 0  9994
2 57194  97.5047 269.6068 0010109 339.8893  20.1945 15.26268125170132
Epoch: 2026-07-25T14:37Z
TLE epoch observation values (Epoch: 2026-07-25T14:37:49.782Z)
Latitude
-0.00006°
Longitude
106.82996°
Altitude
483.562 km
Speed
7.627 km/s
True Right ascension
17h 58m 25s
True Declination
0° 00' 00"
Sunlit
Object was in full shadow at epoch
Visualization orbit readout
Latitude
Unknown
Longitude
Unknown
Altitude
Unknown
Speed
Unknown
Apparent Right ascension
Unknown
Apparent Declination
Unknown
Sunlit
N/A
Visualization observer readout
Local Sidereal Time
18:59:47
Azimuth
Unknown
Elevation
Unknown
Doppler factor
Unknown
Orbital elements
Apogee altitude
490.879 km
Perigee altitude
477.005 km
Semi-major axis
6,862.079 km
Eccentricity
0.00101
Inclination
97.5047°
RAAN
269.6068°
Arg. of periapsis
339.8893°
True anomaly
20.23454°
Mean anomaly
20.1945°
Eccentric anomaly
20.21451°
Mean motion
3.81821 °/min
Orbital period
94.29 mins
BSTAR
0.00035811
Loading maneuver chart data...
Computing Atmospheric mass density...
Loading historical data...
Loading historical data...
Loading historical data...
Loading historical data...
Loading historical data...
Loading historical data...
Loading historical data...

Documentation

Showing up to 5 results
|